Location: Del Amo
(33.8464°N, 118.2104°W)
Time: 19:55:28
(UTC+00:00)

Vanguard 1 Rocket - Pass Details

Date: 17 September 2024
Orbit: 650 x 4218 km, 34.3° (Epoch: 04 October)

Event Time Altitude Azimuth Distance (km) Brightness Sun altitude
Rises 19:58:36 0° 282° (WNW) 8,447 12.3 57.9°
Reaches altitude 10° 20:08:27 10° 266° (W) 7,358 12.2 57.6°
Maximum altitude 20:20:37 16° 236° (SW) 6,329 12.3 57.0°
Drops below altitude 10° 20:31:01 10° 204° (SSW) 6,080 12.3 56.4°
Sets 20:37:56 0° 185° (S) 6,398 12.2 55.8°
